[[{"header":{"parameterUnit":"m.s-1","parameterCategory":1,"la1":30.2991,"la2":30.254,"lo1":-89.0895,"lo2":-89.0444,"dy":0.0017,"dx":0.0017,"nx":28,"ny":28,"refTime":"2023-07-18T21:00:00:Z","depth":0,"parameterNumber":2,"parameterNumberName":"U-component_of_WINDS"},"data":[0,0,0,0,0,0,0,0,0,0,0,0,0,0,0,0,0,0,0,0,0,0,0,0,0,0,0,0,0,0,0,0,0,0,0,0,0,0,0,0,0,0,0,0,0,0,0,0,0,0,0,0,0,0,0,0,0,0,2.417,2.417,0,2.4156,2.4156,2.4156,2.4087,2.4085,2.4083,2.4082,2.4067,2.4069,2.407,0,0,0,0,0,0,0,0,0,0,0,0,0,2.4136,2.4137,2.417,2.417,2.417,2.4156,2.4156,2.4155,2.4087,2.4085,2.4083,2.4081,2.4067,2.4068,2.407,0,0,0,0,0,0,0,0,0,0,0,0,0,2.414,2.4138,2.417,2.4134,2.413,2.4156,2.4156,2.4155,2.4087,2.4085,2.4082,2.408,2.4067,2.4068,2.407,2.413,0,0,2.4075,2.4076,0,0,0,0,0,0,0,0,2.414,2.4141,2.4139,2.4136,2.4132,2.412,2.4138,2.4147,2.4088,2.4104,2.4082,2.4079,2.4087,2.4087,2.409,2.4129,2.4128,2.4075,2.4076,2.4077,2.4078,0,0,0,0,0,0,0,2.4139,2.4141,2.4164,2.4139,2.4135,2.4118,2.4116,2.414,2.4109,2.4102,2.4097,2.4096,2.4085,2.4088,2.4089,2.4128,2.4075,2.4077,2.4078,2.4079,2.4213,2.4215,0,0,0,0,0,0,2.4144,2.4141,2.4165,2.4164,2.413,2.412,2.4118,2.4127,2.4109,2.4104,2.4098,2.4093,2.4087,2.4087,2.4088,2.4154,2.4077,2.4079,2.408,2.421,2.4213,2.4216,0,0,0,0,0,0,2.4144,2.4147,2.4165,2.4151,2.4152,2.4124,2.4134,2.4128,2.4131,2.4106,2.41,2.4108,2.4085,2.4086,2.4119,2.4153,2.408,2.4081,2.4207,2.4211,2.4215,2.4289,0,0,0,0,0,0,2.4143,2.4147,2.417,2.4152,2.4153,2.4197,2.4136,2.4129,2.4134,2.4127,2.4113,2.4108,2.4083,2.4117,2.4121,2.4154,2.4082,2.4204,2.4209,2.4213,2.4283,2.4295,2.4305,0,0,0,0,0,2.4142,2.4192,2.4171,2.4175,2.4181,2.4199,2.42,2.4169,2.4137,2.4159,2.4143,2.4109,2.4149,2.4121,2.4125,2.4159,2.4202,2.4208,2.4213,2.4279,2.4293,2.4305,0,0,0,0,0,0,2.4215,2.4189,2.4166,2.4212,2.4208,2.4188,2.4215,2.4186,2.4191,2.4184,2.4146,2.4144,2.4182,2.4174,2.4143,2.4214,2.4169,2.4176,2.4218,2.4231,2.4242,2.4242,2.4084,0,0,0,0,0,2.4236,2.4254,2.423,2.4273,2.4272,2.4244,2.4251,2.4227,2.4222,2.422,2.4206,2.4203,2.4214,2.4222,2.4232,2.4283,2.4277,2.4308,2.4319,2.4327,2.4333,2.4357,2.437,2.4235,2.4235,2.4235,0,0,2.4281,2.4269,2.4282,2.4287,2.4281,2.4299,2.4243,2.4265,2.4277,2.4224,2.4253,2.4244,2.4237,2.4278,2.4296,2.4273,2.4369,2.4335,2.4342,2.4343,2.4364,2.4377,2.4388,2.4239,2.4238,2.4237,0,0,2.437,2.4364,2.4397,2.4392,2.4384,2.4365,2.4373,2.4357,2.4348,2.4377,2.4337,2.4351,2.4373,2.4369,2.4369,2.4456,2.4424,2.446,2.4516,2.4539,2.455,2.4559,2.4588,2.4599,2.4467,2.4467,2.4467,0,2.4426,2.4451,2.4418,2.4442,2.4444,2.4396,2.4429,2.4426,2.4422,2.4425,2.4399,2.4423,2.4416,2.4454,2.4475,2.4479,2.4485,2.4461,2.4551,2.456,2.4568,2.4595,2.4606,2.4471,2.447,2.447,2.447,0,2.4519,2.4537,2.4565,2.4561,2.4567,2.4596,2.4566,2.4576,2.4552,2.4536,2.4566,2.4555,2.456,2.4568,2.4545,2.4603,2.4589,2.4558,2.4511,2.4586,2.461,2.4621,2.4477,2.4476,2.4474,2.4473,0,0,2.4653,2.463,2.464,2.4637,2.4624,2.4637,2.4664,2.4668,2.4676,2.4676,2.4695,2.4714,2.4684,2.4685,2.4662,2.4683,2.475,2.4649,2.4648,2.4666,2.481,2.4832,2.4845,2.4729,2.4731,2.4732,2.481,0,2.4736,2.4779,2.4749,2.4796,2.4811,2.4765,2.4787,2.4782,2.4767,2.4777,2.4761,2.4774,2.4735,2.4735,2.4754,2.4738,2.4778,2.4732,2.4745,2.4746,2.4746,2.4858,2.4881,2.4955,2.482,2.4821,2.4823,0,2.4839,2.4841,2.489,2.4872,2.4877,2.4898,2.4898,2.491,2.4902,2.4889,2.489,2.4861,2.4884,2.484,2.487,2.484,2.4844,2.4836,2.4838,2.4837,2.4788,2.4857,2.4978,2.4988,2.4838,2.4837,2.4835,0,2.4929,2.4945,2.4974,2.4974,2.4954,2.4969,2.4962,2.4952,2.4956,2.4957,2.4959,2.4964,2.4965,2.4969,2.4941,2.4912,2.4975,2.4929,2.4964,2.4964,2.4977,2.4977,2.5098,2.4984,2.4984,2.4984,2.4983,0,2.5024,2.5055,2.5014,2.5033,2.5065,2.5031,2.5064,2.5052,2.5043,2.5058,2.502,2.5034,2.4997,2.5008,2.4987,2.5014,2.5016,2.5005,2.4999,2.5008,2.5009,2.5008,2.5002,2.4987,2.4986,2.4985,2.4985,0,2.513,2.5104,2.5133,2.5112,2.5108,2.5133,2.5114,2.513,2.5112,2.5131,2.5134,2.5106,2.5117,2.509,2.5096,2.5082,2.5121,2.5107,2.5123,2.5118,2.5154,2.515,2.5278,2.5292,2.5171,2.5172,2.5173,0,2.5191,2.5213,2.5194,2.5201,2.5195,2.5207,2.5211,2.5178,2.5183,2.5175,2.5192,2.5199,2.5202,2.5221,2.5201,2.5206,2.5191,2.5235,2.5191,2.5198,2.5189,2.5187,2.5188,2.5244,2.5245,2.5247,2.5248,0,2.5301,2.5287,2.5294,2.5296,2.5301,2.5301,2.5298,2.5306,2.5271,2.5279,2.5288,2.5291,2.5297,2.5304,2.5304,2.5296,2.5266,2.5262,2.527,2.5278,2.5285,2.5279,2.5145,2.5259,2.5257,2.5257,2.5256,2.5256,2.5385,2.5402,2.539,2.5398,2.5393,2.5391,2.5404,2.5388,2.5395,2.5397,2.5377,2.5391,2.5381,2.5378,2.5373,2.5382,2.5362,2.5374,2.5377,2.538,2.5384,2.5285,2.5383,2.5382,2.5382,2.5382,2.5381,0,2.5491,2.5481,2.5489,2.5486,2.5492,2.5463,2.5459,2.5465,2.5478,2.5471,2.5475,2.5486,2.5492,2.5473,2.5476,2.5487,2.5473,2.5489,2.5487,2.5485,2.5404,2.5395,2.55,2.55,2.55,2.55,2.55,2.55,2.5547,2.5573,2.5558,2.558,2.557,2.5582,2.5582,2.5579,2.5574,2.5587,2.5592,2.5579,2.5567,2.5569,2.5573,2.5567,2.5569,2.5589,2.5579,2.5503,2.5491,2.548,2.5472,2.5591,2.5591,2.5659,2.5659,2.566]},{"header":{"parameterUnit":"m.s-1","parameterCategory":1,"la1":30.2991,"la2":30.254,"lo1":-89.0895,"lo2":-89.0444,"dy":0.0017,"dx":0.0017,"nx":28,"ny":28,"refTime":"2023-07-18T21:00:00:Z","depth":0,"parameterNumber":3,"parameterNumberName":"V-component_of_WINDS"},"data":[0,0,0,0,0,0,0,0,0,0,0,0,0,0,0,0,0,0,0,0,0,0,0,0,0,0,0,0,0,0,0,0,0,0,0,0,0,0,0,0,0,0,0,0,0,0,0,0,0,0,0,0,0,0,0,0,0,0,2.217,2.2172,0,2.2279,2.228,2.2281,2.229,2.2289,2.2288,2.2287,2.2397,2.2401,2.2405,0,0,0,0,0,0,0,0,0,0,0,0,0,2.197,2.1973,2.217,2.2172,2.2173,2.2279,2.228,2.2282,2.2291,2.2289,2.2288,2.2286,2.2395,2.24,2.2405,0,0,0,0,0,0,0,0,0,0,0,0,0,2.2065,2.1975,2.217,2.219,2.2193,2.2278,2.228,2.2282,2.2291,2.2289,2.2287,2.2286,2.2394,2.24,2.2406,2.2478,0,0,2.2424,2.2427,0,0,0,0,0,0,0,0,2.206,2.2073,2.2186,2.2189,2.2192,2.2269,2.225,2.2348,2.2291,2.2254,2.2287,2.2285,2.2356,2.2365,2.2389,2.2483,2.2488,2.2425,2.2428,2.2431,2.2432,0,0,0,0,0,0,0,2.2053,2.2068,2.2213,2.2188,2.2192,2.2193,2.2205,2.2268,2.2313,2.2257,2.2258,2.2271,2.2357,2.2383,2.2391,2.2489,2.2424,2.243,2.2433,2.2436,2.2647,2.2649,0,0,0,0,0,0,2.2043,2.2062,2.221,2.2216,2.2121,2.2198,2.2212,2.2246,2.2312,2.2321,2.2272,2.2271,2.2374,2.2384,2.2395,2.2484,2.2431,2.2436,2.244,2.2645,2.2647,2.265,0,0,0,0,0,0,2.2039,2.2056,2.2205,2.214,2.2159,2.2204,2.2243,2.2249,2.2275,2.2324,2.2332,2.229,2.2373,2.2387,2.2457,2.2488,2.2439,2.2445,2.2643,2.2646,2.2649,2.2661,0,0,0,0,0,0,2.2033,2.2054,2.2083,2.214,2.2162,2.2266,2.2245,2.2253,2.2286,2.2285,2.2343,2.2351,2.2372,2.2448,2.2463,2.2495,2.2449,2.264,2.2644,2.2648,2.2658,2.2664,2.2669,0,0,0,0,0,2.2026,2.2082,2.2084,2.2102,2.2199,2.2268,2.228,2.2304,2.2288,2.2317,2.2348,2.2349,2.2482,2.2455,2.2472,2.2506,2.2638,2.2643,2.2647,2.2656,2.2663,2.2669,0,0,0,0,0,0,2.2026,2.209,2.2093,2.217,2.2213,2.2269,2.2306,2.2311,2.236,2.2357,2.2384,2.2397,2.2466,2.2493,2.2462,2.2579,2.2558,2.2566,2.2559,2.2566,2.2572,2.2564,2.2454,0,0,0,0,0,2.2035,2.2086,2.2139,2.2201,2.2223,2.2261,2.2291,2.2306,2.2352,2.237,2.2407,2.2451,2.2502,2.2536,2.2586,2.2662,2.2675,2.2694,2.2699,2.2704,2.271,2.2752,2.2761,2.2664,2.2664,2.2664,0,0,2.2055,2.2096,2.2126,2.2202,2.2238,2.229,2.2276,2.2331,2.237,2.2379,2.2447,2.2475,2.2526,2.26,2.2634,2.2624,2.274,2.271,2.2713,2.2717,2.2758,2.2767,2.2775,2.2667,2.2667,2.2666,0,0,2.2116,2.2152,2.2208,2.2244,2.2298,2.2322,2.2336,2.2391,2.241,2.2479,2.2487,2.2532,2.2621,2.2657,2.2687,2.2761,2.2764,2.2777,2.2806,2.2846,2.2854,2.286,2.2886,2.2895,2.2783,2.2783,2.2783,0,2.2133,2.2212,2.2236,2.2291,2.2324,2.2335,2.2391,2.2425,2.2492,2.2514,2.2503,2.2614,2.2649,2.2731,2.2749,2.2773,2.2789,2.277,2.2851,2.2858,2.2864,2.289,2.2899,2.2784,2.2784,2.2784,2.2784,0,2.2229,2.2284,2.2322,2.2387,2.2425,2.248,2.2513,2.2547,2.2558,2.2584,2.2654,2.2696,2.2755,2.2776,2.2787,2.2859,2.2851,2.2845,2.2825,2.2874,2.2898,2.2908,2.2786,2.2786,2.2785,2.2785,0,0,2.2294,2.2372,2.2386,2.2415,2.2475,2.2517,2.2573,2.2631,2.266,2.2706,2.2753,2.2827,2.2822,2.2856,2.2871,2.2906,2.2962,2.2896,2.2897,2.2906,2.3043,2.3047,2.3057,2.2964,2.2966,2.2968,2.3038,0,2.2362,2.2462,2.2485,2.2571,2.2621,2.2631,2.268,2.2721,2.2747,2.2792,2.282,2.2872,2.2861,2.2882,2.2917,2.2947,2.2989,2.2943,2.3007,2.3009,2.2994,2.307,2.3075,2.3139,2.3048,2.3049,2.3051,0,2.2454,2.2503,2.2593,2.2646,2.2668,2.2711,2.2766,2.281,2.2857,2.2873,2.291,2.2922,2.298,2.2956,2.3036,2.3003,2.3031,2.305,2.3053,2.306,2.3033,2.3078,2.3161,2.317,2.3066,2.3065,2.3063,0,2.2492,2.258,2.2645,2.267,2.2733,2.2763,2.2791,2.2837,2.287,2.2917,2.2939,2.2992,2.3022,2.3062,2.3088,2.3069,2.3165,2.3144,2.3179,2.3178,2.3199,2.3197,2.3286,2.3217,2.3217,2.3217,2.3217,0,2.2565,2.262,2.2663,2.2703,2.2764,2.279,2.285,2.2878,2.2918,2.2964,2.2976,2.3018,2.3049,2.3096,2.3116,2.3178,2.3191,2.3205,2.321,2.3204,2.3202,2.3222,2.3218,2.3219,2.3219,2.3218,2.3218,0,2.2617,2.2648,2.272,2.2774,2.2789,2.2832,2.2878,2.2917,2.2943,2.3,2.3015,2.3054,2.3109,2.3139,2.3208,2.3221,2.3291,2.3293,2.3275,2.3277,2.331,2.3307,2.3415,2.3431,2.3352,2.3352,2.3353,0,2.2661,2.2704,2.2763,2.2794,2.2823,2.2873,2.2907,2.2934,2.2969,2.3026,2.3058,2.3113,2.3159,2.3247,2.3281,2.3334,2.3337,2.3372,2.3345,2.3338,2.3337,2.3334,2.3338,2.3376,2.3377,2.3377,2.3378,0,2.2737,2.275,2.2798,2.2852,2.2892,2.2936,2.2979,2.3004,2.3038,2.3076,2.3133,2.3168,2.3239,2.3294,2.3349,2.3377,2.3383,2.3386,2.3397,2.3391,2.3379,2.3385,2.3287,2.3383,2.3383,2.3382,2.3382,2.3382,2.2786,2.2824,2.2871,2.2925,2.296,2.3,2.3039,2.307,2.3118,2.3177,2.319,2.325,2.3295,2.337,2.34,2.3446,2.3439,2.3455,2.3459,2.3462,2.3464,2.3371,2.3456,2.3456,2.3456,2.3456,2.3456,0,2.2861,2.2892,2.2941,2.3001,2.3043,2.3046,2.3094,2.3128,2.3181,2.3223,2.3268,2.3333,2.3386,2.3425,2.3479,2.3509,2.3513,2.3522,2.352,2.3526,2.3467,2.3452,2.3518,2.3518,2.3518,2.3518,2.3518,2.3518,2.2905,2.297,2.2988,2.307,2.3101,2.3159,2.3186,2.3223,2.3257,2.3329,2.3373,2.3398,2.3439,2.3496,2.3545,2.3555,2.3574,2.3583,2.3593,2.3537,2.353,2.3524,2.351,2.3587,2.3587,2.3648,2.3649,2.3649]}]]